Wind_Speed
20 19 17 15 15 14 12 11 11 11 11 10 9 8 7 6 5 4 4 4 5 6 7 8 9 10 11 12 12 13 14 15 15 16 16 16 16 17 16 16 16 16
21 20 18 17 16 15 13 12 12 12 12 11 10 9 8 7 5 4 3 3 3 4 5 7 8 9 10 11 11 12 13 14 15 15 16 16 16 16 16 16 16 16
21 20 19 17 16 15 14 13 12 12 12 11 10 9 8 7 6 4 3 1 2 3 4 6 7 8 9 10 11 12 13 13 14 15 16 16 16 15 15 15 15 15
21 20 19 18 17 17 16 15 14 13 12 12 12 10 9 8 6 5 3 2 1 2 4 6 7 8 9 10 11 12 12 13 14 15 15 16 16 16 15 15 15 15
22 20 19 19 19 19 18 17 15 13 13 13 12 11 10 8 7 6 5 3 2 3 4 6 7 8 9 10 11 12 12 13 14 14 14 15 15 16 16 15 15 15
23 22 21 21 20 20 19 18 16 15 14 13 12 12 10 9 8 7 6 5 4 4 5 6 7 8 9 10 11 12 12 13 14 14 14 15 15 16 16 16 15 15
24 24 23 22 22 21 20 20 18 17 16 14 13 12 11 10 9 8 7 6 5 5 5 6 7 8 9 10 11 12 13 14 14 15 15 15 15 16 16 16 16 15
25 25 25 24 23 22 21 21 20 19 17 15 14 13 12 11 10 10 9 8 6 6 6 7 8 9 10 11 12 13 14 14 15 15 15 16 16 16 16 15 15 15
25 26 26 25 25 24 23 23 22 21 19 17 16 15 14 13 12 11 10 9 8 8 8 8 9 10 11 12 13 14 15 15 15 15 15 16 16 16 15 15 15 14
28 27 27 26 25 24 24 24 24 23 21 19 18 17 16 15 13 12 11 11 11 11 11 11 12 12 13 14 15 15 15 15 15 15 15 15 15 15 15 15 14 14
30 30 29 28 26 25 24 24 24 24 23 21 19 18 17 16 15 14 13 13 13 14 14 15 15 15 15 15 15 15 15 14 14 14 14 14 14 14 14 14 14 14
31 31 31 29 27 26 24 24 23 23 23 22 21 19 18 18 17 16 15 15 16 17 17 17 18 17 16 15 15 14 14 13 13 13 13 13 13 14 14 14 15 15
31 31 30 29 27 26 25 24 24 23 23 23 22 21 21 20 19 18 17 17 18 19 19 19 19 18 16 15 13 13 12 12 12 12 12 13 14 14 15 15 16 16
28 28 27 26 26 26 25 25 25 24 24 23 23 23 23 22 21 20 19 20 20 20 20 19 18 17 15 13 12 12 12 12 12 12 13 14 15 16 16 17 17 17
26 26 24 23 23 25 26 27 26 26 25 24 25 25 24 23 22 21 20 20 20 20 19 19 17 15 13 12 11 11 11 11 11 12 13 14 15 16 17 17 18 18
24 24 23 21 22 24 26 26 26 26 25 25 26 25 24 23 22 21 20 20 19 19 18 18 16 13 12 12 11 11 11 10 11 11 12 14 14 15 16 17 18 18
23 24 23 22 22 23 25 26 26 25 25 25 26 25 24 23 22 21 20 19 18 17 17 16 14 12 11 11 11 10 10 9 10 11 11 12 13 14 15 16 17 18
24 24 24 24 23 23 24 25 25 25 25 25 25 24 23 22 21 20 18 17 17 16 15 13 11 10 11 11 10 9 9 9 9 10 10 11 11 12 13 14 16 17
27 26 26 26 24 23 23 23 24 24 24 23 23 22 21 21 20 18 16 15 15 15 13 11 9 9 10 10 10 9 9 9 9 9 9 9 9 10 11 13 15 17
30 29 28 28 26 25 23 23 23 24 23 22 21 20 20 20 18 16 14 13 13 13 12 11 9 9 10 10 10 9 9 9 9 9 9 9 9 9 10 11 13 15
31 30 29 28 28 27 25 24 24 24 22 21 20 19 18 17 15 14 14 13 13 12 11 11 10 9 11 11 11 10 10 10 10 9 9 9 9 9 10 11 12 15
32 31 31 30 29 28 27 27 26 25 23 22 21 20 18 16 15 14 13 12 12 12 12 12 11 10 12 13 12 11 12 11 10 10 10 10 10 10 11 12 13 15
36 35 34 33 32 32 31 30 28 26 25 23 23 22 21 20 18 16 13 13 13 14 15 15 13 12 13 15 14 14 13 13 12 11 12 11 11 11 12 13 14 15
40 40 39 36 35 35 35 33 30 28 26 25 25 24 23 22 21 19 17 17 17 17 17 17 15 14 15 16 16 15 15 15 13 13 13 12 11 11 13 15 15 16
44 44 43 40 38 37 37 36 34 31 29 28 27 27 25 24 23 22 21 21 21 20 19 18 17 16 17 18 17 16 17 17 16 15 14 12 11 12 14 16 17 17
48 47 46 44 42 39 37 37 36 34 33 32 31 30 28 26 25 24 24 24 24 23 22 21 20 18 19 19 18 17 18 18 17 17 16 13 12 13 15 17 18 18
Wind_Direction
202 199 201 204 205 205 204 199 195 194 191 191 194 197 196 192 182 159 130 104 87 75 64 53 45 40 36 32 28 26 25 25 27 29 29 29 29 28 27 27 28 30
202 200 201 204 206 206 207 205 200 197 197 199 201 203 205 205 198 183 155 113 84 67 57 49 41 35 32 28 24 21 19 17 18 20 21 22 23 23 23 22 23 23
206 203 203 206 208 208 209 210 207 205 204 205 207 210 213 214 214 208 195 160 74 53 43 39 35 29 25 22 20 18 15 13 12 12 12 12 14 15 16 17 17 18
211 209 207 208 210 211 211 212 212 211 210 211 214 217 220 222 227 231 230 243 328 23 27 28 25 19 15 14 13 12 11 9 7 6 4 3 4 5 7 10 11 12
214 212 211 211 213 214 214 215 216 215 215 218 221 224 227 231 237 246 256 270 306 349 6 11 10 6 3 3 4 5 5 3 0 358 357 356 354 355 357 0 3 5
213 213 213 215 217 217 216 218 220 220 220 223 225 228 232 239 246 256 267 282 304 330 347 353 354 353 352 352 354 355 355 354 353 350 348 347 347 347 349 351 355 357
212 212 214 218 220 219 218 219 221 223 225 226 228 232 238 244 252 261 270 282 295 312 327 335 339 340 341 342 342 341 341 342 342 342 341 340 340 341 342 344 347 349
214 212 213 217 220 220 220 221 222 224 227 230 232 237 244 248 254 261 268 276 285 295 308 317 323 327 329 331 332 332 333 331 331 333 335 335 334 335 337 338 341 343
220 218 217 218 219 218 219 221 223 224 228 230 233 238 243 247 252 257 265 272 279 287 295 302 308 313 317 320 323 326 326 325 325 327 329 330 330 331 333 334 337 339
224 224 224 224 223 221 220 221 222 225 229 231 235 239 242 246 249 253 261 269 277 284 289 294 299 304 308 312 316 320 321 321 322 324 325 326 327 327 329 331 332 334
226 226 227 229 229 227 226 225 224 227 231 234 238 243 246 249 252 255 259 267 274 280 286 291 295 299 302 306 311 315 317 319 320 321 322 322 323 324 324 326 327 328
228 228 228 229 231 231 231 231 231 232 234 237 241 246 250 254 258 261 264 269 274 278 284 289 292 295 299 304 309 312 314 316 317 318 318 317 318 318 319 319 321 322
231 231 230 229 230 233 234 236 236 237 238 240 243 246 250 254 259 265 270 273 276 279 283 286 289 292 297 301 305 307 309 311 313 314 315 314 314 315 315 316 316 317
236 236 234 232 231 232 234 236 238 239 240 241 244 246 248 252 257 263 268 273 276 280 283 284 286 289 292 295 298 299 302 306 310 312 314 314 315 316 317 317 317 317
237 239 238 235 232 231 232 235 237 239 241 242 244 246 249 252 256 260 264 268 272 276 279 280 281 284 286 287 288 291 296 302 308 313 314 314 317 319 319 320 319 318
235 239 239 234 230 229 231 233 236 237 239 240 243 246 249 252 255 258 260 262 265 268 270 272 274 277 279 280 281 285 292 300 307 311 314 315 317 319 320 320 319 318
231 235 236 233 228 226 227 230 232 233 234 236 239 241 244 248 251 253 254 255 257 260 260 262 265 271 274 275 278 284 291 298 304 307 310 313 316 319 320 319 318 317
226 231 234 233 230 227 227 229 231 232 232 232 234 235 237 241 245 247 248 249 251 253 254 257 261 265 269 271 275 281 287 292 297 301 305 310 315 318 319 319 318 318
218 224 230 234 233 231 230 232 233 235 235 234 234 234 236 239 242 245 247 249 250 253 256 258 259 259 261 266 270 274 279 283 288 295 302 309 314 317 320 320 319 318
215 218 224 229 234 235 233 234 235 237 238 238 236 236 237 240 244 248 250 253 254 255 258 258 255 253 254 258 262 266 271 276 283 292 301 308 314 318 321 320 319 317
222 223 226 228 231 234 235 234 235 237 237 237 237 237 238 240 244 248 250 253 255 256 258 256 251 251 254 255 257 260 265 271 280 290 297 304 311 316 317 317 316 315
232 232 233 234 234 235 235 234 234 234 234 235 235 236 238 239 240 242 244 249 254 257 256 253 250 251 256 258 259 260 264 270 278 286 292 300 308 311 311 312 311 311
240 238 236 235 235 236 236 235 233 231 230 231 233 234 236 237 238 238 240 243 247 249 249 248 247 249 255 259 262 264 267 272 277 283 289 296 305 308 306 306 307 307
243 241 238 235 233 234 236 237 236 234 231 229 230 231 232 234 235 236 236 237 238 240 243 245 245 247 251 256 260 263 267 272 276 280 286 293 301 303 301 301 303 304
242 243 241 238 235 233 235 236 237 238 237 235 233 231 229 229 231 232 233 235 236 238 241 244 244 243 248 253 257 260 264 268 273 277 283 291 296 295 295 297 300 302
242 244 242 240 238 237 236 237 237 238 239 239 239 237 233 229 228 230 233 235 237 239 241 244 244 242 244 250 255 257 261 266 271 274 281 289 290 288 290 293 297 301
Height
11009 11011 11013 11015 11016 11017 11018 11018 11019 11019 11020 11021 11022 11023 11024 11024 11025 11025 11025 11025 11025 11025 11025 11025 11025 11024 11024 11023 11023 11023 11022 11022 11021 11021 11020 11020 11019 11018 11018 11017 11016 11015
11008 11009 11011 11013 11015 11016 11017 11018 11018 11019 11020 11021 11022 11023 11024 11024 11025 11025 11026 11026 11026 11026 11026 11026 11026 11026 11025 11025 11025 11024 11023 11023 11022 11021 11021 11021 11020 11019 11019 11018 11017 11016
11007 11008 11010 11012 11014 11015 11016 11017 11018 11019 11020 11021 11022 11023 11024 11024 11025 11025 11026 11026 11027 11027 11027 11027 11027 11027 11027 11026 11026 11025 11025 11024 11023 11022 11021 11021 11020 11020 11019 11018 11017 11016
11005 11007 11009 11011 11012 11014 11015 11016 11017 11018 11019 11020 11021 11022 11023 11024 11025 11025 11026 11027 11027 11028 11028 11028 11028 11028 11028 11028 11027 11027 11026 11025 11024 11023 11022 11021 11020 11020 11020 11019 11018 11017
11004 11006 11008 11009 11011 11012 11014 11015 11017 11018 11019 11020 11020 11021 11022 11023 11024 11025 11026 11027 11027 11028 11028 11029 11029 11029 11029 11028 11028 11027 11026 11025 11024 11023 11022 11021 11021 11020 11019 11018 11017 11017
11003 11005 11006 11008 11009 11011 11012 11014 11015 11017 11018 11019 11020 11021 11022 11023 11024 11025 11026 11026 11027 11028 11028 11028 11029 11029 11029 11028 11028 11027 11026 11025 11024 11023 11023 11022 11021 11020 11019 11018 11017 11016
11001 11003 11005 11006 11008 11009 11011 11012 11014 11015 11017 11018 11019 11020 11021 11022 11023 11024 11025 11026 11027 11027 11027 11028 11028 11028 11028 11028 11028 11027 11026 11025 11024 11023 11022 11021 11021 11020 11018 11017 11016 11016
10999 11001 11003 11004 11006 11008 11010 11011 11012 11014 11015 11017 11018 11019 11020 11021 11022 11023 11024 11025 11026 11026 11027 11027 11027 11027 11027 11027 11027 11026 11025 11024 11024 11023 11022 11021 11020 11019 11018 11017 11016 11015
10998 10999 11001 11002 11004 11006 11008 11009 11011 11012 11013 11015 11016 11017 11018 11019 11021 11022 11023 11024 11024 11025 11025 11026 11026 11026 11026 11026 11026 11025 11024 11024 11023 11022 11021 11020 11019 11018 11017 11017 11016 11015
10996 10998 10999 11000 11002 11004 11005 11007 11009 11010 11012 11013 11015 11016 11017 11018 11019 11020 11021 11022 11023 11023 11024 11024 11024 11025 11025 11024 11024 11024 11023 11023 11022 11021 11021 11020 11019 11017 11016 11016 11015 11014
10994 10996 10997 10999 11000 11002 11004 11005 11007 11009 11010 11012 11013 11014 11015 11016 11017 11018 11019 11020 11020 11021 11022 11022 11023 11023 11023 11023 11023 11022 11022 11022 11021 11020 11020 11019 11018 11016 11015 11014 11013 11013
10992 10993 10995 10997 10999 11000 11002 11004 11005 11007 11008 11010 11011 11013 11014 11014 11015 11016 11017 11018 11019 11019 11020 11020 11021 11021 11021 11021 11021 11021 11020 11020 11020 11019 11019 11018 11017 11016 11014 11013 11012 11011
10989 10990 10993 10995 10997 10999 11001 11002 11004 11005 11007 11008 11009 11011 11012 11012 11013 11015 11016 11017 11017 11017 11018 11018 11019 11019 11020 11020 11020 11019 11019 11018 11018 11018 11017 11016 11015 11014 11013 11012 11011 11010
10987 10989 10992 10994 10996 10998 10999 11000 11001 11003 11004 11006 11007 11008 11009 11010 11011 11012 11014 11015 11015 11015 11016 11016 11017 11017 11018 11018 11018 11017 11017 11016 11016 11016 11015 11014 11014 11013 11012 11011 11010 11009
10986 10988 10991 10994 10996 10997 10997 10998 10999 11001 11003 11004 11005 11005 11006 11008 11009 11010 11011 11012 11013 11013 11014 11014 11014 11015 11016 11016 11016 11015 11015 11014 11014 11014 11013 11012 11012 11011 11010 11010 11009 11007
10986 10988 10990 10993 10994 10995 10996 10996 10997 10999 11001 11002 11002 11003 11004 11005 11006 11007 11008 11009 11010 11011 11012 11012 11012 11013 11014 11014 11014 11013 11013 11012 11012 11011 11011 11010 11009 11009 11008 11007 11006 11005
10985 10987 10989 10991 10992 10993 10994 10995 10996 10997 10999 10999 11000 11001 11002 11003 11004 11005 11006 11007 11008 11008 11009 11010 11011 11012 11012 11012 11012 11011 11011 11010 11010 11009 11008 11008 11007 11007 11006 11005 11004 11003
10984 10986 10987 10989 10990 10992 10993 10994 10995 10996 10997 10998 10999 10999 11000 11002 11003 11003 11004 11005 11006 11006 11007 11008 11009 11010 11010 11010 11010 11010 11009 11008 11007 11007 11006 11005 11005 11004 11004 11003 11002 11001
10981 10983 10985 10987 10989 10990 10992 10993 10994 10995 10996 10997 10998 10999 11000 11001 11001 11002 11003 11004 11004 11005 11005 11006 11008 11008 11009 11008 11008 11008 11007 11006 11006 11005 11004 11003 11003 11002 11002 11001 11000 10998
10977 10979 10981 10983 10985 10988 10990 10992 10993 10994 10995 10996 10998 10999 10999 11000 11001 11002 11003 11003 11004 11004 11005 11005 11006 11007 11007 11007 11006 11006 11005 11005 11004 11003 11002 11002 11001 11000 11000 10998 10997 10996
10977 10979 10980 10981 10983 10984 10986 10989 10990 10992 10993 10995 10996 10998 10998 10999 11000 11001 11002 11002 11003 11003 11004 11004 11005 11005 11005 11005 11005 11004 11004 11003 11002 11001 11001 11000 10999 10998 10997 10996 10995 10994
10977 10979 10981 10982 10982 10983 10983 10985 10986 10988 10991 10993 10994 10996 10997 10998 10999 10999 11000 11001 11002 11002 11003 11003 11004 11004 11004 11003 11003 11002 11002 11001 11000 10999 10998 10998 10997 10996 10995 10994 10993 10992
10975 10977 10979 10981 10982 10982 10982 10982 10983 10985 10988 10990 10992 10993 10994 10995 10996 10998 10999 11000 11000 11000 11000 11000 11001 11002 11002 11002 11001 11001 11000 10999 10998 10997 10996 10995 10995 10994 10993 10992 10991 10990
10971 10973 10976 10978 10979 10980 10980 10981 10982 10983 10985 10987 10988 10990 10991 10992 10994 10995 10996 10996 10997 10997 10997 10998 10999 10999 10999 10999 10999 10999 10998 10997 10996 10995 10994 10993 10993 10992 10991 10990 10989 10988
10967 10969 10971 10974 10975 10976 10978 10979 10980 10981 10983 10984 10985 10986 10988 10989 10991 10992 10993 10993 10993 10994 10995 10995 10995 10996 10996 10996 10996 10996 10996 10995 10994 10993 10992 10991 10991 10990 10989 10988 10987 10986
10962 10965 10967 10969 10971 10973 10975 10976 10978 10979 10980 10981 10982 10983 10985 10986 10988 10988 10989 10990 10990 10991 10992 10992 10992 10992 10992 10992 10992 10993 10993 10992 10991 10990 10989 10989 10988 10987 10986 10985 10984 10983